Location: Kellogg
(38.0159°N, 90.0546°W)
Time: 00:53:03
(UTC+00:00)

Vanguard 2 - Pass Details

Date: 26 September 2024
Orbit: 552 x 2910 km, 32.9° (Epoch: 15 October)

Event Time Altitude Azimuth Distance (km) Brightness Sun altitude
Rises 04:50:00 0° 224° (SW) 3,532 - -50.8°
Reaches altitude 10° 04:53:34 10° 207° (SSW) 2,270 - -51.1°
Maximum altitude 04:57:04 19° 162° (SSE) 1,516 - -51.3°
Drops below altitude 10° 05:00:03 10° 116° (ESE) 1,878 - -51.6°
Sets 05:02:38 0° 96° (E) 2,716 - -51.7°
